Regional Weather Roundup
Issued by NWS

Home | Current Version | Previous Version | Graphics & Text | Print | Product List | Glossary On
Versions: 1 2 3 4 5 6 7 8 9 10 11 12 13 14 15 16 17 18 19 20 21 22 23 24 25 26 27 28 29 30 31 32 33 34 35 36 37 38 39 40 41 42 43 44 45 46 47 48 49 50
000
ASUS43 KDTX 210710
RWRMI
MICHIGAN HOURLY REGIONAL WEATHER ROUNDUP
NATIONAL WEATHER SERVICE DETROIT/PONTIAC MI
300 AM EDT MON APR 21 2014

NOTE: "FAIR" INDICATES FEW OR NO CLOUDS BELOW 12,000 FEET WITH NO
SIGNIFICANT WEATHER AND/OR OBSTRUCTION TO VISIBILITY.

MIZ047>049-052>055-059>063-066>070-074>076-081>083-210800-
SOUTHEAST LOWER MICHIGAN

CITY           SKY/WX    TMP DP  RH WIND       PRES   REMARKS
ADRIAN         CLEAR     44  37  76 N6        30.07F
ALMA           MOCLDY    56  35  45 S6        30.03F
ANN ARBOR      CLEAR     41  35  79 CALM      30.07F
BAD AXE        CLOUDY    54  39  57 S5        30.05S
DETROIT CITY   CLEAR     50  32  50 CALM      30.08F
DETROIT        MOCLDY    48  35  60 CALM      30.08F
FLINT          PTCLDY    54  37  52 S5        30.05F
GROSSE ILE     PTCLDY    45  39  81 CALM      30.06S
HILLSDALE      CLEAR     50  33  52 CALM      30.06F
HOWELL         PTCLDY    48  34  59 SE5       30.05F

CITY           SKY/WX    TMP DP  RH WIND       PRES   REMARKS
JACKSON        CLEAR     48  35  60 CALM      30.06F
LAMBERTVILLE   PTCLDY    46  39  76 CALM      30.07S
LANSING        MOCLDY    55  31  39 CALM      30.05F
LAPEER         NOT AVBL
MASON          CLOUDY    51  37  59 S6        30.05F
MONROE         PTCLDY    43  39  87 CALM      30.05F
MT. CLEMENS    CLEAR     42  38  86 CALM      30.06F
PONTIAC        CLEAR     51  32  48 CALM      30.06F
PORT HOPE        N/A     46  43  89 NE5       30.03F
PORT HURON     CLEAR     39  36  87 CALM      30.08F
TRI CITIES     CLOUDY    60  34  37 S8        30.03F
YPSILANTI      CLEAR     44  35  70 CALM      30.07F
$$
MIZ043>046-050>051-056>058-064>065-071>073-077>080-210800-
SOUTHWEST LOWER MICHIGAN

CITY           SKY/WX    TMP DP  RH WIND       PRES   REMARKS
BATTLE CREEK   CLEAR     53  34  48 CALM      30.05F
BENTON HARBOR  MOCLDY    59  33  37 S5        30.03F
BIG RAPIDS     MOCLDY    60  36  40 S3        29.99F
COLDWATER      CLEAR     45  39  79 CALM      30.05F
HOLLAND        MOCLDY    59  35  40 S8        30.02F
GRAND RAPIDS   PTCLDY    58  33  39 S9        30.02F
KALAMAZOO      CLEAR     53  34  48 S6        30.05F
MARSHALL       CLEAR     45  35  69 CALM      30.04F
MUSKEGON       MOCLDY    66  30  26 S16       30.00F
$$
MIZ016>042-210800-
NORTHERN LOWER MICHIGAN

CITY           SKY/WX    TMP DP  RH WIND       PRES   REMARKS
ALPENA         CLOUDY    46  40  79 N5        30.02F
BEAVER ISLAND  CLOUDY    41  40  95 CALM      29.98F FOG
BELLAIRE       CLOUDY    49  44  82 CALM      29.98F
CADILLAC       CLOUDY    56  41  56 S5        29.98F
CHARLEVOIX     CLOUDY    45  43  93 E5        30.03F FOG
FRANKFORT      CLOUDY    48  40  72 CALM      29.98S
GAYLORD        CLOUDY    52  42  69 CALM      30.00F
GRAYLING       CLOUDY    53  44  73 CALM      30.00F
HARBOR SPRINGS CLOUDY    43  43  98 E3        30.00F FOG
HOUGHTON LAKE  MOCLDY    52  46  80 S5        30.00F
MANISTEE       MOCLDY    57  39  51 S3        29.97F
OSCODA         CLOUDY    50  47  90 CALM      30.01F
PELLSTON       LGT RAIN  43  41  93 NE3       30.02F FOG
TRAVERSE CITY  MOCLDY    45  36  70 NW7       29.97F
$$
MIZ007>008-015-210800-
EASTERN UPPER MICHIGAN

CITY           SKY/WX    TMP DP  RH WIND       PRES   REMARKS
KINROSS        CLOUDY    36  36 100 NE5       29.99F VSB 3/4
MACKINAC ISLAN CLOUDY    39  38  97 S14       30.00S
NEWBERRY       CLOUDY    33  33  99 CALM      29.99S FOG
S. S. MARIE    FOG       37  35  92 CALM      30.00F VSB 1/4
$$
MIZ004>006-011>014-085-210800-
CENTRAL UPPER MICHIGAN

CITY           SKY/WX    TMP DP  RH WIND       PRES   REMARKS
MANISTIQUE     MOCLDY    33  33  96 CALM      29.98F FOG
ESCANABA       CLOUDY    37  36  93 CALM      29.97F VSB 1/4
MENOMINEE      CLOUDY    39  39 100 SE3       29.95F VSB<1/4
SAWYER-GWINN   FOG       36  35  98 CALM      29.97F VSB 1/4
$$
MIZ001>003-009>011-084-210800-
WESTERN UPPER MICHIGAN

CITY           SKY/WX    TMP DP  RH WIND       PRES   REMARKS
IRON MOUNTAIN  FOG       41  40  96 CALM      29.96F VSB 1/4
HOUGHTON       CLEAR     34  30  85 CALM      29.95F
COPPER HARBOR    N/A     40  35  83 W6        29.96S
IRONWOOD       CLEAR     36  27  69 CALM      29.93F
$$

ABBREVIATIONS USED IN REMARKS
   TC - TEMPERATURE IN CELSIUS
  WCI - WIND CHILL INDEX
   HX - HEAT INDEX
  VSB - VISIBILITY




USA.gov is the U.S. government's official web portal to all federal, state and local government web resources and services.